TimeCST,TemperatureF,Dew PointF,Humidity,Sea Level PressureIn,VisibilityMPH,Wind Direction,Wind SpeedMPH,Gust SpeedMPH,PrecipitationIn,Events,Conditions,WindDirDegrees,DateUTC
12:15 AM,30.2,26.6,86,30.25,10.0,Calm,Calm,-,N/A,,Clear,0,2012-12-22 06:15:00
12:35 AM,30.2,26.6,86,30.25,10.0,Calm,Calm,-,N/A,,Clear,0,2012-12-22 06:35:00
12:55 AM,30.2,24.8,80,30.24,10.0,Calm,Calm,-,N/A,,Clear,0,2012-12-22 06:55:00
1:15 AM,30.2,24.8,80,30.24,10.0,Calm,Calm,-,N/A,,Clear,0,2012-12-22 07:15:00
1:35 AM,30.2,24.8,80,30.24,10.0,Calm,Calm,-,N/A,,Clear,0,2012-12-22 07:35:00
1:55 AM,30.2,24.8,80,30.23,10.0,Calm,Calm,-,N/A,,Clear,0,2012-12-22 07:55:00
2:15 AM,28.4,26.6,93,30.23,10.0,Calm,Calm,-,N/A,,Clear,0,2012-12-22 08:15:00
2:35 AM,28.4,24.8,86,30.23,10.0,Calm,Calm,-,N/A,,Clear,0,2012-12-22 08:35:00
2:55 AM,28.4,23.0,80,30.23,10.0,Calm,Calm,-,N/A,,Clear,0,2012-12-22 08:55:00
3:15 AM,26.6,23.0,86,30.22,10.0,Calm,Calm,-,N/A,,Clear,0,2012-12-22 09:15:00
3:35 AM,26.6,24.8,93,30.22,10.0,Calm,Calm,-,N/A,,Clear,0,2012-12-22 09:35:00
3:55 AM,26.6,24.8,93,30.22,10.0,Calm,Calm,-,N/A,,Clear,0,2012-12-22 09:55:00
4:15 AM,26.6,24.8,93,30.22,10.0,Calm,Calm,-,N/A,,Clear,0,2012-12-22 10:15:00
4:35 AM,26.6,23.0,86,30.21,10.0,Calm,Calm,-,N/A,,Clear,0,2012-12-22 10:35:00
4:55 AM,26.6,23.0,86,30.21,10.0,Calm,Calm,-,N/A,,Clear,0,2012-12-22 10:55:00
5:15 AM,26.6,23.0,86,30.21,10.0,Calm,Calm,-,N/A,,Clear,0,2012-12-22 11:15:00
5:35 AM,26.6,24.8,93,30.21,10.0,Calm,Calm,-,N/A,,Clear,0,2012-12-22 11:35:00
5:55 AM,26.6,23.0,86,30.20,10.0,Calm,Calm,-,N/A,,Clear,0,2012-12-22 11:55:00
6:15 AM,26.6,23.0,86,30.20,10.0,Calm,Calm,-,N/A,,Clear,0,2012-12-22 12:15:00
6:35 AM,24.8,23.0,93,30.20,10.0,Calm,Calm,-,N/A,,Clear,0,2012-12-22 12:35:00
6:55 AM,26.6,23.0,86,30.20,10.0,Calm,Calm,-,N/A,,Clear,0,2012-12-22 12:55:00
7:15 AM,26.6,23.0,86,30.20,10.0,Calm,Calm,-,N/A,,Clear,0,2012-12-22 13:15:00
7:35 AM,26.6,23.0,86,30.20,10.0,Calm,Calm,-,N/A,,Clear,0,2012-12-22 13:35:00
7:55 AM,26.6,23.0,86,30.19,10.0,Calm,Calm,-,N/A,,Clear,0,2012-12-22 13:55:00
8:15 AM,30.2,26.6,86,30.19,10.0,Calm,Calm,-,N/A,,Clear,0,2012-12-22 14:15:00
8:35 AM,33.8,28.4,81,30.19,10.0,Calm,Calm,-,N/A,,Clear,0,2012-12-22 14:35:00
8:55 AM,39.2,28.4,65,30.19,10.0,South,3.5,-,N/A,,Clear,190,2012-12-22 14:55:00
9:15 AM,44.6,26.6,49,30.19,10.0,South,11.5,-,N/A,,Clear,190,2012-12-22 15:15:00
9:35 AM,46.4,24.8,43,30.18,10.0,South,9.2,-,N/A,,Clear,190,2012-12-22 15:35:00
9:55 AM,50.0,23.0,35,30.18,10.0,South,10.4,-,N/A,,Clear,190,2012-12-22 15:55:00
10:15 AM,51.8,23.0,33,30.18,10.0,SSW,10.4,-,N/A,,Clear,200,2012-12-22 16:15:00
10:35 AM,53.6,23.0,30,30.18,10.0,SSW,9.2,-,N/A,,Clear,210,2012-12-22 16:35:00
10:55 AM,55.4,21.2,26,30.17,10.0,SSW,11.5,-,N/A,,Clear,210,2012-12-22 16:55:00
11:15 AM,57.2,19.4,23,30.16,10.0,SSW,10.4,16.1,N/A,,Clear,200,2012-12-22 17:15:00
11:35 AM,59.0,19.4,22,30.15,10.0,SW,13.8,17.3,N/A,,Clear,220,2012-12-22 17:35:00
11:55 AM,59.0,17.6,20,30.13,10.0,SSW,13.8,-,N/A,,Clear,210,2012-12-22 17:55:00
12:15 PM,60.8,19.4,20,30.12,10.0,SSW,11.5,-,N/A,,Clear,200,2012-12-22 18:15:00
12:35 PM,60.8,19.4,20,30.10,10.0,South,12.7,18.4,N/A,,Clear,180,2012-12-22 18:35:00
12:55 PM,62.6,19.4,19,30.08,10.0,South,13.8,-,N/A,,Clear,180,2012-12-22 18:55:00
1:15 PM,62.6,19.4,19,30.07,10.0,SSW,13.8,-,N/A,,Clear,200,2012-12-22 19:15:00
1:35 PM,64.4,19.4,18,30.05,10.0,SSW,11.5,-,N/A,,Clear,200,2012-12-22 19:35:00
1:55 PM,64.4,17.6,16,30.05,10.0,SW,18.4,23.0,N/A,,Clear,220,2012-12-22 19:55:00
2:15 PM,64.4,17.6,16,30.04,10.0,SSW,15.0,29.9,N/A,,Clear,210,2012-12-22 20:15:00
2:35 PM,64.4,17.6,16,30.04,10.0,SW,17.3,28.8,N/A,,Clear,220,2012-12-22 20:35:00
2:55 PM,64.4,19.4,18,30.03,10.0,SSW,13.8,21.9,N/A,,Clear,200,2012-12-22 20:55:00
3:15 PM,62.6,19.4,19,30.03,10.0,SSW,15.0,-,N/A,,Clear,200,2012-12-22 21:15:00
3:35 PM,62.6,19.4,19,30.02,10.0,SSW,13.8,19.6,N/A,,Clear,210,2012-12-22 21:35:00
3:55 PM,62.6,19.4,19,30.02,10.0,South,13.8,-,N/A,,Clear,190,2012-12-22 21:55:00
4:15 PM,62.6,19.4,19,30.02,10.0,SSW,18.4,25.3,N/A,,Clear,200,2012-12-22 22:15:00
4:35 PM,62.6,19.4,19,30.02,10.0,South,16.1,23.0,N/A,,Clear,190,2012-12-22 22:35:00
4:55 PM,60.8,19.4,20,30.02,10.0,SSW,13.8,23.0,N/A,,Clear,200,2012-12-22 22:55:00
5:15 PM,59.0,17.6,20,30.02,10.0,South,10.4,-,N/A,,Clear,190,2012-12-22 23:15:00
5:35 PM,57.2,19.4,23,30.03,10.0,SSW,13.8,17.3,N/A,,Clear,200,2012-12-22 23:35:00
5:55 PM,57.2,19.4,23,30.03,10.0,SSW,11.5,-,N/A,,Clear,200,2012-12-22 23:55:00
6:15 PM,55.4,19.4,25,30.03,10.0,SSW,10.4,-,N/A,,Clear,200,2012-12-23 00:15:00
6:35 PM,55.4,21.2,26,30.03,10.0,South,8.1,-,N/A,,Clear,190,2012-12-23 00:35:00
6:55 PM,53.6,21.2,28,30.03,10.0,South,6.9,-,N/A,,Clear,180,2012-12-23 00:55:00
7:15 PM,53.6,21.2,28,30.03,10.0,South,5.8,-,N/A,,Clear,170,2012-12-23 01:15:00
7:35 PM,51.8,21.2,30,30.02,10.0,South,5.8,-,N/A,,Clear,170,2012-12-23 01:35:00
7:55 PM,53.6,21.2,28,30.02,10.0,South,6.9,-,N/A,,Clear,170,2012-12-23 01:55:00
8:15 PM,53.6,23.0,30,30.02,10.0,South,8.1,-,N/A,,Clear,170,2012-12-23 02:15:00
8:35 PM,53.6,23.0,30,30.02,10.0,South,6.9,-,N/A,,Clear,180,2012-12-23 02:35:00
8:55 PM,51.8,26.6,38,30.02,10.0,South,6.9,-,N/A,,Clear,180,2012-12-23 02:55:00
9:15 PM,51.8,26.6,38,30.02,10.0,South,5.8,-,N/A,,Clear,180,2012-12-23 03:15:00
9:35 PM,50.0,26.6,40,30.02,10.0,Calm,Calm,-,N/A,,Clear,0,2012-12-23 03:35:00
9:55 PM,50.0,26.6,40,30.01,10.0,South,4.6,-,N/A,,Clear,170,2012-12-23 03:55:00
10:15 PM,51.8,28.4,41,30.00,10.0,South,4.6,-,N/A,,Clear,170,2012-12-23 04:15:00
10:35 PM,50.0,28.4,43,30.00,10.0,Calm,Calm,-,N/A,,Clear,0,2012-12-23 04:35:00
10:55 PM,46.4,28.4,50,30.00,10.0,Calm,Calm,-,N/A,,Clear,0,2012-12-23 04:55:00
11:15 PM,42.8,28.4,57,30.00,10.0,Calm,Calm,-,N/A,,Clear,0,2012-12-23 05:15:00
11:35 PM,44.6,28.4,53,30.00,10.0,Calm,Calm,-,N/A,,Clear,0,2012-12-23 05:35:00
11:55 PM,48.2,32.0,54,29.98,10.0,South,6.9,-,N/A,,Clear,190,2012-12-23 05:55:00